星链-34440 (STARLINK-34440)

导读 | 豆包AI

STARLINK-34440是美国SpaceX星链星座的一员,于2025年6月25日发射升空。星链项目旨在构建全球卫星互联网星座,为全球偏远地区、海洋空域等提供低延迟高速网络服务,该卫星入轨后将参与星座组网,进一步拓展星链全球覆盖能力,增强卫星互联网服务的稳定性与带宽容量。

基本信息
目录编号:
64614
目录名称:
STARLINK-34440
国际标识:
2025-137W
轨道中心:
EARTH
卫星名称:
星链-34440
卫星全名:
星链-34440 (STARLINK-34440)
卫星状态:
在轨 (已飞行308 天)
发射日期:
2025-06-25 UTC
国别 :
美国 (US)
星等 :
--
轨道信息
数据来源 国际轨道数据
星历时间: 2026-04-29T13:49:15+0800
8小时前
查看轨道信息
半长轴: 6853.346km
偏心率: 0.0001052
轨道倾角: 53.156°
近地点辐角 54.255°
升交点赤经 100.492°
平近点角 305.855°
近地点: 474.488km
远地点: 475.93km
周期: 94.105分钟
每日圈数: 15.302021
详细信息
固有亮度:
5
最大亮度:
2.5
卫星平台:
Starlink V1.0
覆盖范围:
全球
运营商:
太空探索技术公司
运营商所在国:
美国
制造商(研发单位):
太空探索技术公司
制造商所在国:
美国
使用方式:
暂无
卫星简介
Starlink 计划是 SpaceX 推出的全球卫星互联网项目,通过发射低轨道卫星,为全球尤其是偏远地区提供高速、低延迟的互联网服务。自 2019 年起,Starlink 已部署数千颗卫星,旨在缩小全球数字鸿沟,推动互联网普及。该项目还为军事、航空等行业提供通信支持,带来广泛经济效益。
2D轨道图
3D轨道图
轨道高度分析图
轨道倾角分析图
轨道综合分析图
查看轨道综合分析图